Home   Weather   Jaén   Past weeks

Flag for Spain Past Weather in Jaén, Spain — Yesterday and Last 2 Weeks

59 °F


Feels Like: 59 °F
Forecast: 56 / 80 °F
Wind: No wind

Location: Granada / Aeropuerto

Current Time: Oct 27, 2016 at 3:18:10 AM

Latest Report: Oct 27, 2016 at 2:30 AM

Visibility: N/A

Pressure: 30.27 "Hg (28.31 "Hg at 565m altitude)

Humidity: 94%

Dew Point: 57 °F

Location of JaénLocation

Past Weather in Jaén — Graph


Jaén Temperature Yesterday

Maximum temperature yesterday: 84 °F (at 4:00 PM)
Minimum temperature yesterday: 59 °F (at 5:30 AM)
Average temperature yesterday: 69 °F

High & Low Weather Summary for the Past Weeks

High84 °F (Oct 26, 4:00 PM)100% (Oct 12, 4:00 PM)30.30 "Hg (Oct 12, 4:00 PM)
Low43 °F (Oct 15, 7:00 AM)26% (Oct 17, 3:30 PM)29.62 "Hg (Oct 13, 6:30 AM)
Average62 °F78%29.98 "Hg
* Reported Oct 12 2:00 AM — Oct 27 2:00 AM, Jaén, Weather by CustomWeather, © 2016

Note: Actual official high and low records may vary slightly from our data, if they occured in-between our weather recording intervals... More about our weather records


Jaén Weather History for the Previous 24 Hours

Scroll right to see more
Time TempWeatherWind HumidityBarometerVisibility
2:00 AM
Thu, Oct 27
59 °FClear.No wind94%30.27 "Hg10 mi
1:30 AM61 °FClear.No wind94%30.27 "Hg10 mi
12:30 AM63 °FMild.No wind88%30.27 "HgN/A
12:00 AM63 °FMild.2 mph88%30.27 "HgN/A
11:30 PM
Wed, Oct 26
64 °FClear.No wind88%30.27 "Hg10 mi
11:00 PM66 °FClear.2 mph83%30.27 "Hg10 mi
10:30 PM66 °FClear.1 mph83%30.27 "Hg10 mi
10:00 PM68 °FClear.1 mph78%30.27 "Hg10 mi
9:30 PM68 °FClear.2 mph78%30.24 "Hg10 mi
9:00 PM70 °FClear.3 mph73%30.24 "Hg10 mi
8:30 PM70 °FClear.3 mph73%30.24 "Hg10 mi
8:00 PM72 °FClear.2 mph69%30.21 "Hg10 mi
7:30 PM75 °FClear.No wind65%30.21 "Hg10 mi
7:00 PM79 °FPassing clouds.3 mph61%30.21 "HgN/A
6:30 PM82 °FSunny.No wind48%30.18 "Hg10 mi
6:00 PM82 °FSunny.1 mph45%30.18 "Hg10 mi
5:30 PM84 °FSunny.No wind40%30.18 "Hg10 mi
5:00 PM84 °FSunny.2 mph40%30.18 "Hg10 mi
4:30 PM82 °FSunny.2 mph45%30.18 "Hg10 mi
4:00 PM84 °FSunny.1 mph43%30.18 "Hg10 mi
3:30 PM82 °FSunny.2 mph45%30.18 "Hg10 mi
3:00 PM81 °FPassing clouds.5 mph48%30.21 "HgN/A
2:30 PM79 °FSunny.1 mph58%30.21 "Hg10 mi
2:00 PM77 °FSunny.No wind61%30.21 "Hg10 mi
1:30 PM75 °FSunny.1 mph61%30.24 "Hg10 mi
1:00 PM73 °FSunny.2 mph65%30.24 "Hg10 mi
12:30 PM73 °FSunny.1 mph65%30.24 "Hg10 mi
12:00 PM72 °FSunny.No wind69%30.21 "Hg10 mi
11:30 AM70 °FSunny.1 mph73%30.21 "Hg10 mi
11:00 AM66 °FSunny.No wind83%30.21 "Hg10 mi
10:30 AM61 °FSunny.No wind100%30.21 "Hg10 mi
10:00 AM61 °FSunny.1 mph94%30.21 "Hg10 mi
9:30 AM59 °FSunny.No wind100%30.18 "Hg10 mi
9:00 AM59 °FSunny.No wind100%30.18 "Hg10 mi
8:30 AM59 °FClear.3 mph100%30.18 "Hg10 mi
8:00 AM59 °FClear.No wind100%30.18 "Hg10 mi
7:30 AM59 °FClear.No wind100%30.18 "Hg10 mi
7:00 AM59 °FClear.2 mph100%30.15 "Hg10 mi
6:30 AM59 °FClear.2 mph94%30.12 "Hg10 mi
6:00 AM59 °FClear.2 mph94%30.12 "Hg10 mi
5:30 AM59 °FPassing clouds.3 mph100%30.12 "HgN/A
5:00 AM61 °FClear.1 mph94%30.12 "Hg10 mi
4:30 AM61 °FClear.1 mph94%30.12 "Hg10 mi
4:00 AM61 °FClear.1 mph100%30.12 "Hg5 mi
3:30 AM63 °FClear.3 mph94%30.12 "Hg6 mi
3:00 AM63 °FClear.1 mph94%30.12 "Hg6 mi
Weather by CustomWeather, © 2016

See weather overviewHow to use our weather pages